DW4338 Bergen NO current weather conditions

sailwx.info

Wind from 134

Air temperature -1.7° C
Dewpoint -8.0° C

Last reported at 2016-Feb-13 16:38 UTC.
Time now 2016-Feb-13 17:12 UTC

Location: N 60°31' E 004°54'.
View on Google Maps.

See reports from other nearby stations

  
Tides and Currents Weather Stations Pressure Air Temp Water Temp Dewpoint Dewpoint Depression Visibility Wind Speed Wind Dir Waves Ship Positions
date/time (UTC)wind fromknots sea level pressurealtimeterstation pressurevisibilityair tempwater tempwave heightnotes
2016-Feb-13 16:38 134 -1.7
2016-Feb-13 16:23 134 -1.7
2016-Feb-13 16:08 134 1 gusting 11 -1.7
2016-Feb-13 15:53 140 -1.7
2016-Feb-13 15:38 141 -1.1
2016-Feb-13 15:23 142 1 gusting 6 -1.1
2016-Feb-13 15:08 142 2 gusting 14 -0.6
2016-Feb-13 14:53 126 9 gusting 16 -0.6
2016-Feb-13 14:37 134 9 gusting 13 -0.6
2016-Feb-13 14:22 142 6 gusting 12 -0.6
2016-Feb-13 14:07 140 3 gusting 13 -0.6
2016-Feb-13 13:52 142 3 gusting 14 -0.6
2016-Feb-13 13:37 135 -0.0
2016-Feb-13 13:22 131 1 gusting 11 -0.0
2016-Feb-13 13:07 161 1 gusting 13 -0.0
2016-Feb-13 12:52 126 4 gusting 11 -0.0
2016-Feb-13 12:37 142 0 gusting 9 -0.0
2016-Feb-13 12:22 140 1 gusting 13 -0.6
2016-Feb-13 12:07 142 5 gusting 15 -0.6
2016-Feb-13 11:52 140 3 gusting 13 -0.6
2016-Feb-13 11:37 134 4 gusting 10 -0.0
2016-Feb-13 11:22 156 -0.6
2016-Feb-13 11:07 143 -0.6
2016-Feb-13 10:52 140 2 gusting 13 -1.1
2016-Feb-13 10:37 130 2 gusting 7 -1.1
2016-Feb-13 10:22 123 1 gusting 11 -1.1
2016-Feb-13 10:07 146 0 gusting 6 -1.1
2016-Feb-13 09:52 137 -2.2
2016-Feb-13 09:37 131 0 gusting 7 -2.8
2016-Feb-13 09:22 131 1 gusting 8 -2.8
2016-Feb-13 09:07 129 4 gusting 10 -2.8
2016-Feb-13 08:52 130 4 gusting 10 -3.3
2016-Feb-13 08:37 131 -3.3
2016-Feb-13 08:22 130 1 gusting 10 -3.9
2016-Feb-13 08:07
2016-Feb-13 07:51
2016-Feb-13 07:36
2016-Feb-13 07:21
2016-Feb-13 07:06
2016-Feb-13 06:51
2016-Feb-13 06:36
2016-Feb-13 06:21
2016-Feb-13 06:06
2016-Feb-13 05:51
2016-Feb-13 05:36
2016-Feb-13 05:21
2016-Feb-13 05:06
2016-Feb-13 04:51
2016-Feb-13 04:36
2016-Feb-13 04:20
2016-Feb-13 04:05
2016-Feb-13 03:50
2016-Feb-13 03:35
2016-Feb-13 03:20
2016-Feb-13 03:05
2016-Feb-13 02:50
2016-Feb-13 02:35
2016-Feb-13 02:20
2016-Feb-13 02:05
2016-Feb-13 01:50
2016-Feb-13 01:35
2016-Feb-13 01:20
2016-Feb-13 01:05
2016-Feb-13 00:49
2016-Feb-13 00:34
2016-Feb-13 00:19
2016-Feb-13 00:04
2016-Feb-12 23:49
2016-Feb-12 23:34
2016-Feb-12 23:19
2016-Feb-12 23:04
2016-Feb-12 22:49 076 1 gusting 8 -2.2
2016-Feb-12 22:34 076 1 gusting 6 -2.2
2016-Feb-12 22:19 077 -2.2
2016-Feb-12 22:04 077 -1.7
2016-Feb-12 21:49 078 -2.2
2016-Feb-12 21:34 080 -1.7
2016-Feb-12 21:19 082 -1.7
2016-Feb-12 21:04 092 -1.7
2016-Feb-12 20:49 104 -1.7
2016-Feb-12 20:34 104 -1.7
2016-Feb-12 20:19 104 -1.7
2016-Feb-12 20:04 104 -1.1
2016-Feb-12 19:49 104 -1.1
2016-Feb-12 19:33 078 -0.6
2016-Feb-12 19:18 047 2 gusting 13 -0.0
2016-Feb-12 19:03 067 3 gusting 14 -0.0
2016-Feb-12 18:48 017 1 gusting 11 -0.0
2016-Feb-12 18:33 355 0 gusting 10 -0.0
2016-Feb-12 18:18 355 4 gusting 13 -0.0
2016-Feb-12 18:03 064 4 gusting 12 -0.0
2016-Feb-12 17:48 344 2 gusting 8 -0.0
2016-Feb-12 17:33 016 1 gusting 7 -0.0
2016-Feb-12 17:18 015 4 gusting 13 -0.0
2016-Feb-12 17:03 020 -0.0
2016-Feb-12 16:48 011 3 gusting 13 -0.0
2016-Feb-12 16:33 036 0.6
2016-Feb-12 16:18 038 2 gusting 23 0.6
2016-Feb-12 16:03 060 1 gusting 13 1.1
2016-Feb-12 15:48 060 1 gusting 12 1.7
2016-Feb-12 15:33 050 2 gusting 17 1.7
2016-Feb-12 15:18 342 7 gusting 21 2.2
2016-Feb-12 15:03 052 5 gusting 19 2.2
2016-Feb-12 14:48 351 12 gusting 22 2.2
2016-Feb-12 14:33 355 14 gusting 27 2.2
2016-Feb-12 14:18 360 7 gusting 20 2.2
2016-Feb-12 14:03 058 1 gusting 17 2.2
2016-Feb-12 13:48 032 2.2
2016-Feb-12 13:33 032 0 gusting 13 1.7
2016-Feb-12 13:18 015 1 gusting 15 1.7
2016-Feb-12 13:03 049 3 gusting 19 1.7
2016-Feb-12 12:48
2016-Feb-12 12:32 046 6 gusting 19
2016-Feb-12 12:17 040 4 gusting 22
2016-Feb-12 12:02 015 2 gusting 23
2016-Feb-12 11:47 056 9 gusting 21
2016-Feb-12 11:32 062 8 gusting 26
2016-Feb-12 11:17 060 3 gusting 19
2016-Feb-12 11:02 024 8 gusting 21
2016-Feb-12 10:47 074 1 gusting 14
2016-Feb-12 10:32 067 4 gusting 14
2016-Feb-12 10:17 105 4 gusting 18
2016-Feb-12 10:02 057 7 gusting 18
2016-Feb-12 09:47 027 6 gusting 18
2016-Feb-12 09:32 055 7 gusting 19
2016-Feb-12 09:16 052 7 gusting 21
2016-Feb-12 09:01 019 10 gusting 20
2016-Feb-12 08:46 060 4 gusting 22
2016-Feb-12 08:31 044 11 gusting 24
2016-Feb-12 08:16 057 10 gusting 24
2016-Feb-12 08:01 064 7 gusting 15
2016-Feb-12 07:46 057 6 gusting 19
2016-Feb-12 07:31 077 7 gusting 16
2016-Feb-12 07:16 072
2016-Feb-12 07:01 067 0 gusting 18
2016-Feb-12 06:46 052 11 gusting 21
2016-Feb-12 06:31 057 3 gusting 13
2016-Feb-12 06:16 092
2016-Feb-12 06:01 097
2016-Feb-12 05:45 045 2 gusting 16
2016-Feb-12 05:30 140
2016-Feb-12 05:15 061 5 gusting 8
2016-Feb-12 05:00 076
2016-Feb-12 04:45 061 1 gusting 13
2016-Feb-12 04:30 033 0 gusting 15
2016-Feb-12 04:15 113 0 gusting 9
2016-Feb-12 04:00 091 5 gusting 21
2016-Feb-12 03:45 068 10 gusting 20
2016-Feb-12 03:30 019 8 gusting 19
2016-Feb-12 03:15 062 1 gusting 11
2016-Feb-12 03:00 098
2016-Feb-12 02:45 112 5 gusting 11
2016-Feb-12 02:29 115 4 gusting 13
2016-Feb-12 02:14 134 3 gusting 13
2016-Feb-12 01:59 065 2 gusting 18
2016-Feb-12 01:44 069 8 gusting 26
2016-Feb-12 01:29 076 6 gusting 19
2016-Feb-12 01:14 067 8 gusting 19
2016-Feb-12 00:59 099 4 gusting 11
2016-Feb-12 00:44 079 11 gusting 21
2016-Feb-12 00:29 108 7 gusting 21
2016-Feb-12 00:14 103 7 gusting 19
2016-Feb-11 23:59 108 6 gusting 23
2016-Feb-11 23:44 101 6 gusting 14
2016-Feb-11 23:29 067 5 gusting 19
2016-Feb-11 23:13 072 16 gusting 30
2016-Feb-11 22:58 042 13 gusting 38
2016-Feb-11 22:43 075 9 gusting 22
2016-Feb-11 22:28 065 11 gusting 26
2016-Feb-11 22:13 055 7 gusting 29
2016-Feb-11 21:58 059 13 gusting 27
2016-Feb-11 21:43 063 15 gusting 36
2016-Feb-11 21:28 053 19 gusting 32
2016-Feb-11 21:13 063 18 gusting 30
2016-Feb-11 20:58 048 15 gusting 38
2016-Feb-11 20:43 095 19 gusting 41
2016-Feb-11 20:28 063 13 gusting 30
2016-Feb-11 20:13 055 19 gusting 30
2016-Feb-11 19:58 049 17 gusting 32
2016-Feb-11 19:42 050 16 gusting 29
2016-Feb-11 19:27 053 21 gusting 39
2016-Feb-11 19:12 055 19 gusting 29
2016-Feb-11 18:57 110 13 gusting 26
2016-Feb-11 18:42 053 17 gusting 39
2016-Feb-11 18:27 053 19 gusting 34
2016-Feb-11 18:12 103 18 gusting 33
2016-Feb-11 17:57 122 18 gusting 33
2016-Feb-11 17:42 044 13 gusting 28
2016-Feb-11 17:27 047 12 gusting 28
2016-Feb-11 17:12 059 19 gusting 28